Location: Ar Ranvel
(48.3000°N, 4.8833°W)
Time: 23:19:36
(UTC+00:00)

N. Korean satellite - Pass Details

Date: 02 October 2021
Orbit: 450 x 495 km, 97.3° (Epoch: 25 October)

Event Time Altitude Azimuth Distance (km) Brightness Sun altitude
Rises 04:55:51 0° 24° (NNE) 2,552 10.8 -14.8°
Reaches altitude 10° 04:58:12 10° 39° (NE) 1,675 10.0 -14.4°
Maximum altitude 05:01:10 24° 94° (E) 1,054 9.2 -13.9°
Drops below altitude 10° 05:04:09 10° 150° (SSE) 1,680 9.6 -13.5°
Sets 05:06:31 0° 165° (SSE) 2,561 10.3 -13.1°
